^^
Datos históricos de la estación: Murcia-Puente Tocinos
Diario Informe para Enero 24, 2019 Unidades:  Métrico    Inglés   Ambas
Diario Semanal Mensual Anual Configurable
  Máximo: Mínimo: Media:
Temperatura: 18.9 °C 13.9 °C 16.7 °C
Punto de rocio: 7.9 °C 4.0 °C 5.2 °C
Humedad: 65% 38% 47%
Velocidad viento: 32.3km/h 2.3km/h 18km/h
Racha viento: 59.5km/h - -
Viento- - WSW
Presión: 1011.3 hPa 1002.1 hPa -
Precipitación: 0.0 mm    
Historical Graphs
 
 
Tabla de datos para Enero 24, 2019
Hora Temperatura Punto de rocio Presión Viento Velocidad viento Racha viento Humedad Intensidad lluvia(por hora) Nubes
00:00 17.1 °C 4.4 °C 1002.3 hPa West 14.5 km/h 27.4 km/h 43% 0.0 mm CLR
00:05 17.3 °C 4.3 °C 1002.5 hPa West 14.8 km/h 22.2 km/h 42% 0.0 mm CLR
00:10 17.3 °C 4.2 °C 1002.5 hPa West 14.5 km/h 24.1 km/h 42% 0.0 mm CLR
00:15 17.1 °C 4.4 °C 1002.5 hPa NW 14.0 km/h 14.8 km/h 43% 0.0 mm CLR
00:20 16.8 °C 4.4 °C 1002.8 hPa NNW 11.1 km/h 24.1 km/h 44% 0.0 mm CLR
00:25 16.5 °C 4.5 °C 1002.8 hPa WNW 11.1 km/h 18.5 km/h 45% 0.0 mm CLR
00:30 16.3 °C 4.3 °C 1002.8 hPa West 14.0 km/h 18.5 km/h 45% 0.0 mm CLR
00:35 16.3 °C 4.3 °C 1003.0 hPa WNW 14.5 km/h 22.5 km/h 45% 0.0 mm CLR
00:40 16.3 °C 4.3 °C 1003.0 hPa NW 13.7 km/h 22.2 km/h 45% 0.0 mm CLR
00:45 16.4 °C 4.4 °C 1003.0 hPa WNW 12.9 km/h 27.4 km/h 45% 0.0 mm CLR
00:50 16.4 °C 4.4 °C 1003.2 hPa West 14.8 km/h 25.9 km/h 45% 0.0 mm CLR
00:55 16.4 °C 4.4 °C 1003.2 hPa West 14.8 km/h 33.3 km/h 45% 0.0 mm CLR
01:00 16.7 °C 4.7 °C 1003.2 hPa West 19.3 km/h 37.0 km/h 45% 0.0 mm CLR
01:05 17.1 °C 4.7 °C 1002.9 hPa West 19.3 km/h 45.1 km/h 44% 0.0 mm CLR
01:10 16.9 °C 4.6 °C 1002.9 hPa WSW 20.9 km/h 25.9 km/h 44% 0.0 mm CLR
01:15 16.9 °C 4.6 °C 1002.9 hPa WNW 20.9 km/h 33.8 km/h 44% 0.0 mm CLR
01:20 16.9 °C 4.6 °C 1003.0 hPa West 20.9 km/h 48.3 km/h 44% 0.0 mm CLR
01:25 17.1 °C 4.7 °C 1003.0 hPa West 20.9 km/h 56.3 km/h 44% 0.0 mm CLR
01:30 17.3 °C 4.9 °C 1003.0 hPa West 24.1 km/h 49.9 km/h 44% 0.0 mm CLR
01:35 17.4 °C 5.0 °C 1003.0 hPa WSW 23.7 km/h 27.8 km/h 44% 0.0 mm CLR
01:40 17.3 °C 4.9 °C 1003.0 hPa West 22.5 km/h 41.8 km/h 44% 0.0 mm CLR
01:45 17.4 °C 5.0 °C 1003.0 hPa West 22.5 km/h 56.3 km/h 44% 0.0 mm CLR
01:50 17.3 °C 4.9 °C 1003.3 hPa NW 25.6 km/h 29.6 km/h 44% 0.0 mm CLR
01:55 17.2 °C 4.8 °C 1003.3 hPa West 25.6 km/h 35.2 km/h 44% 0.0 mm CLR
02:00 17.1 °C 4.8 °C 1003.3 hPa West 24.1 km/h 41.8 km/h 44% 0.0 mm CLR
02:05 17.1 °C 4.7 °C 1003.1 hPa West 24.5 km/h 29.6 km/h 44% 0.0 mm CLR
02:10 17.1 °C 4.7 °C 1003.1 hPa West 20.1 km/h 40.7 km/h 44% 0.0 mm CLR
02:15 17.0 °C 4.7 °C 1003.1 hPa West 20.9 km/h 35.4 km/h 44% 0.0 mm CLR
02:20 16.9 °C 4.9 °C 1003.0 hPa West 20.9 km/h 40.2 km/h 45% 0.0 mm CLR
02:25 16.9 °C 4.9 °C 1003.0 hPa West 20.1 km/h 40.7 km/h 45% 0.0 mm CLR
02:30 16.8 °C 4.8 °C 1003.0 hPa West 21.7 km/h 35.2 km/h 45% 0.0 mm CLR
02:35 16.7 °C 4.7 °C 1002.8 hPa West 22.5 km/h 35.4 km/h 45% 0.0 mm CLR
02:40 16.6 °C 4.9 °C 1002.8 hPa West 20.9 km/h 32.2 km/h 46% 0.0 mm CLR
02:45 16.6 °C 4.9 °C 1002.8 hPa WSW 19.8 km/h 25.9 km/h 46% 0.0 mm CLR
02:50 16.5 °C 4.8 °C 1002.7 hPa West 19.3 km/h 35.4 km/h 46% 0.0 mm CLR
02:55 16.4 °C 4.7 °C 1002.7 hPa West 19.0 km/h 38.9 km/h 46% 0.0 mm CLR
03:00 16.5 °C 4.8 °C 1002.7 hPa West 20.9 km/h 40.2 km/h 46% 0.0 mm CLR
03:05 16.6 °C 4.6 °C 1002.2 hPa West 20.9 km/h 38.9 km/h 45% 0.0 mm CLR
03:10 16.6 °C 4.6 °C 1002.2 hPa West 20.9 km/h 37.0 km/h 45% 0.0 mm CLR
03:15 16.6 °C 4.6 °C 1002.2 hPa WSW 20.9 km/h 29.6 km/h 45% 0.0 mm CLR
03:20 16.6 °C 4.6 °C 1002.1 hPa West 19.3 km/h 53.1 km/h 45% 0.0 mm CLR
03:25 16.7 °C 4.7 °C 1002.1 hPa WSW 19.0 km/h 27.8 km/h 45% 0.0 mm CLR
03:30 16.8 °C 4.8 °C 1002.1 hPa WNW 23.3 km/h 37.0 km/h 45% 0.0 mm CLR
03:35 16.8 °C 4.8 °C 1002.4 hPa West 23.3 km/h 35.9 km/h 45% 0.0 mm CLR
03:40 16.7 °C 4.7 °C 1002.4 hPa West 24.1 km/h 49.9 km/h 45% 0.0 mm CLR
03:45 16.8 °C 4.8 °C 1002.4 hPa West 24.5 km/h 29.6 km/h 45% 0.0 mm CLR
03:50 16.7 °C 4.7 °C 1002.2 hPa WNW 24.5 km/h 38.9 km/h 45% 0.0 mm CLR
03:55 16.9 °C 4.9 °C 1002.2 hPa WSW 24.5 km/h 50.0 km/h 45% 0.0 mm CLR
04:00 16.9 °C 4.6 °C 1002.2 hPa West 29.0 km/h 46.7 km/h 44% 0.0 mm CLR
04:05 16.9 °C 4.9 °C 1002.3 hPa WSW 28.6 km/h 37.0 km/h 45% 0.0 mm CLR
04:10 16.8 °C 4.8 °C 1002.3 hPa WNW 26.2 km/h 46.3 km/h 45% 0.0 mm CLR
04:15 16.9 °C 4.6 °C 1002.3 hPa West 25.7 km/h 51.5 km/h 44% 0.0 mm CLR
04:20 16.8 °C 4.8 °C 1002.3 hPa West 27.4 km/h 49.9 km/h 45% 0.0 mm CLR
04:25 16.9 °C 4.9 °C 1002.3 hPa NW 28.2 km/h 48.1 km/h 45% 0.0 mm CLR
04:30 16.8 °C 4.8 °C 1002.3 hPa West 29.0 km/h 49.9 km/h 45% 0.0 mm CLR
04:35 16.9 °C 4.9 °C 1002.3 hPa WSW 29.8 km/h 42.6 km/h 45% 0.0 mm CLR
04:40 16.8 °C 4.8 °C 1002.3 hPa West 27.0 km/h 47.3 km/h 45% 0.0 mm CLR
04:45 16.8 °C 4.8 °C 1002.3 hPa West 27.0 km/h 37.0 km/h 45% 0.0 mm CLR
04:50 16.7 °C 5.0 °C 1002.4 hPa West 25.7 km/h 41.8 km/h 46% 0.0 mm CLR
04:55 16.7 °C 4.7 °C 1002.4 hPa West 25.1 km/h 44.4 km/h 45% 0.0 mm CLR
05:00 16.8 °C 4.8 °C 1002.4 hPa West 25.7 km/h 51.5 km/h 45% 0.0 mm CLR
05:05 16.8 °C 4.8 °C 1002.3 hPa WNW 25.6 km/h 37.0 km/h 45% 0.0 mm CLR
05:10 16.7 °C 4.7 °C 1002.3 hPa WSW 25.1 km/h 29.6 km/h 45% 0.0 mm CLR
05:15 16.6 °C 4.9 °C 1002.3 hPa West 25.1 km/h 38.9 km/h 46% 0.0 mm CLR
05:20 16.5 °C 4.8 °C 1002.3 hPa West 21.7 km/h 38.9 km/h 46% 0.0 mm CLR
05:25 16.7 °C 5.0 °C 1002.3 hPa West 21.7 km/h 46.3 km/h 46% 0.0 mm CLR
05:30 16.7 °C 5.0 °C 1002.3 hPa West 26.2 km/h 44.4 km/h 46% 0.0 mm CLR
05:35 16.7 °C 5.0 °C 1002.3 hPa WNW 26.2 km/h 40.7 km/h 46% 0.0 mm CLR
05:40 16.6 °C 4.9 °C 1002.3 hPa WSW 24.5 km/h 35.2 km/h 46% 0.0 mm CLR
05:45 16.6 °C 4.9 °C 1002.3 hPa West 24.5 km/h 40.7 km/h 46% 0.0 mm CLR
05:50 16.5 °C 4.8 °C 1002.4 hPa NNW 24.5 km/h 27.8 km/h 46% 0.0 mm CLR
05:55 16.4 °C 4.7 °C 1002.4 hPa NW 24.5 km/h 35.2 km/h 46% 0.0 mm CLR
06:00 16.4 °C 4.8 °C 1002.4 hPa West 22.5 km/h 43.4 km/h 46% 0.0 mm CLR
06:05 16.6 °C 4.9 °C 1002.4 hPa NNW 21.7 km/h 31.5 km/h 46% 0.0 mm CLR
06:10 16.4 °C 5.1 °C 1002.4 hPa West 26.2 km/h 25.9 km/h 47% 0.0 mm CLR
06:15 16.4 °C 5.1 °C 1002.4 hPa West 26.2 km/h 37.0 km/h 47% 0.0 mm CLR
06:20 16.3 °C 4.9 °C 1002.2 hPa West 22.5 km/h 37.0 km/h 47% 0.0 mm CLR
06:25 16.2 °C 4.9 °C 1002.2 hPa West 22.5 km/h 35.2 km/h 47% 0.0 mm CLR
06:30 16.2 °C 4.9 °C 1002.2 hPa WNW 23.7 km/h 40.7 km/h 47% 0.0 mm CLR
06:35 16.3 °C 4.9 °C 1002.7 hPa WNW 23.7 km/h 34.3 km/h 47% 0.0 mm CLR
06:40 16.2 °C 4.9 °C 1002.7 hPa West 23.7 km/h 42.6 km/h 47% 0.0 mm CLR
06:45 16.3 °C 4.9 °C 1002.7 hPa West 23.7 km/h 46.3 km/h 47% 0.0 mm CLR
06:50 16.2 °C 5.2 °C 1002.6 hPa West 27.4 km/h 44.4 km/h 48% 0.0 mm CLR
06:55 16.2 °C 5.2 °C 1002.6 hPa WNW 27.4 km/h 46.3 km/h 48% 0.0 mm CLR
07:00 16.2 °C 4.9 °C 1002.6 hPa West 25.7 km/h 38.6 km/h 47% 0.0 mm CLR
07:05 16.2 °C 4.9 °C 1002.4 hPa WNW 26.2 km/h 29.6 km/h 47% 0.0 mm CLR
07:10 16.2 °C 4.9 °C 1002.4 hPa WNW 24.1 km/h 33.8 km/h 47% 0.0 mm CLR
07:15 16.3 °C 4.9 °C 1002.4 hPa West 23.7 km/h 22.2 km/h 47% 0.0 mm CLR
07:20 16.3 °C 4.9 °C 1003.0 hPa WNW 22.5 km/h 51.5 km/h 47% 0.0 mm CLR
07:25 16.4 °C 4.7 °C 1003.0 hPa West 21.7 km/h 35.2 km/h 46% 0.0 mm CLR
07:30 16.4 °C 4.7 °C 1003.0 hPa WNW 24.5 km/h 27.8 km/h 46% 0.0 mm CLR
07:35 16.3 °C 4.9 °C 1003.5 hPa West 24.5 km/h 24.1 km/h 47% 0.0 mm CLR
07:40 16.3 °C 4.9 °C 1003.5 hPa WNW 19.3 km/h 33.8 km/h 47% 0.0 mm CLR
07:45 16.4 °C 4.7 °C 1003.5 hPa West 18.3 km/h 29.6 km/h 46% 0.0 mm CLR
07:50 16.5 °C 4.8 °C 1003.7 hPa NNW 20.9 km/h 27.8 km/h 46% 0.0 mm CLR
07:55 16.4 °C 4.7 °C 1003.7 hPa West 20.9 km/h 31.5 km/h 46% 0.0 mm CLR
08:00 16.4 °C 4.7 °C 1003.7 hPa WNW 22.5 km/h 40.2 km/h 46% 0.0 mm CLR
08:05 16.4 °C 4.7 °C 1003.9 hPa SW 21.7 km/h 25.6 km/h 46% 0.0 mm CLR
08:10 16.4 °C 4.7 °C 1003.9 hPa West 17.2 km/h 22.2 km/h 46% 0.0 mm CLR
08:15 16.3 °C 4.9 °C 1003.9 hPa NW 17.2 km/h 24.1 km/h 47% 0.0 mm CLR
08:20 16.2 °C 4.9 °C 1004.3 hPa West 12.9 km/h 24.1 km/h 47% 0.0 mm FEW
08:25 16.3 °C 4.9 °C 1004.3 hPa WNW 13.0 km/h 29.6 km/h 47% 0.0 mm FEW
08:30 16.5 °C 4.8 °C 1004.3 hPa WNW 13.7 km/h 25.9 km/h 46% 0.0 mm FEW
08:35 16.6 °C 4.9 °C 1004.5 hPa WNW 13.7 km/h 24.1 km/h 46% 0.0 mm FEW
08:40 16.7 °C 4.7 °C 1004.5 hPa West 14.8 km/h 33.3 km/h 45% 0.0 mm FEW
08:45 16.9 °C 4.6 °C 1004.5 hPa NNW 14.8 km/h 27.8 km/h 44% 0.0 mm FEW
08:50 16.9 °C 4.9 °C 1005.0 hPa NW 20.1 km/h 14.8 km/h 45% 0.0 mm SCT
08:55 16.8 °C 4.4 °C 1005.0 hPa SW 20.1 km/h 33.3 km/h 44% 0.0 mm SCT
09:00 16.9 °C 4.6 °C 1005.0 hPa WNW 19.3 km/h 32.2 km/h 44% 0.0 mm SCT
09:05 16.9 °C 4.6 °C 1005.3 hPa West 18.0 km/h 20.4 km/h 44% 0.0 mm SCT
09:10 16.9 °C 4.6 °C 1005.3 hPa NW 16.4 km/h 14.8 km/h 44% 0.0 mm SCT
09:15 16.8 °C 4.8 °C 1005.3 hPa WNW 16.4 km/h 18.5 km/h 45% 0.0 mm SCT
09:20 16.8 °C 4.4 °C 1005.3 hPa WNW 11.9 km/h 31.5 km/h 44% 0.0 mm SCT
09:25 16.8 °C 4.8 °C 1005.3 hPa WNW 11.9 km/h 26.2 km/h 45% 0.0 mm SCT
09:30 16.8 °C 4.4 °C 1005.3 hPa WNW 14.5 km/h 29.0 km/h 44% 0.0 mm SCT
09:35 16.9 °C 4.6 °C 1005.5 hPa WSW 15.6 km/h 33.3 km/h 44% 0.0 mm SCT
09:40 17.0 °C 4.7 °C 1005.5 hPa WNW 17.2 km/h 31.5 km/h 44% 0.0 mm SCT
09:45 17.1 °C 4.4 °C 1005.5 hPa NW 17.2 km/h 24.1 km/h 43% 0.0 mm SCT
09:50 17.1 °C 4.7 °C 1005.7 hPa WNW 17.2 km/h 16.7 km/h 44% 0.0 mm SCT
09:55 17.0 °C 4.7 °C 1005.7 hPa WNW 17.2 km/h 18.5 km/h 44% 0.0 mm SCT
10:00 16.9 °C 4.6 °C 1005.7 hPa WNW 12.9 km/h 25.7 km/h 44% 0.0 mm SCT
10:05 17.1 °C 4.7 °C 1005.9 hPa NW 12.2 km/h 24.1 km/h 44% 0.0 mm SCT
10:10 17.1 °C 4.7 °C 1005.9 hPa NW 16.4 km/h 16.7 km/h 44% 0.0 mm SCT
10:15 17.1 °C 4.7 °C 1005.9 hPa NNW 16.4 km/h 23.7 km/h 44% 0.0 mm SCT
10:20 17.1 °C 4.7 °C 1006.2 hPa NW 14.5 km/h 27.4 km/h 44% 0.0 mm SCT
10:25 17.2 °C 4.8 °C 1006.2 hPa NW 14.8 km/h 24.1 km/h 44% 0.0 mm SCT
10:30 17.2 °C 4.5 °C 1006.2 hPa WNW 16.1 km/h 37.0 km/h 43% 0.0 mm SCT
10:35 17.3 °C 4.6 °C 1006.4 hPa West 17.2 km/h 31.5 km/h 43% 0.0 mm SCT
10:40 17.4 °C 4.7 °C 1006.4 hPa NW 20.9 km/h 22.2 km/h 43% 0.0 mm SCT
10:45 17.4 °C 4.7 °C 1006.4 hPa WNW 20.9 km/h 40.2 km/h 43% 0.0 mm SCT
10:50 17.5 °C 4.8 °C 1006.2 hPa WNW 20.9 km/h 33.8 km/h 43% 0.0 mm SCT
10:55 17.5 °C 4.8 °C 1006.2 hPa West 20.9 km/h 29.6 km/h 43% 0.0 mm SCT
11:00 17.6 °C 4.8 °C 1006.2 hPa WNW 20.9 km/h 32.2 km/h 43% 0.0 mm SCT
11:05 17.6 °C 4.9 °C 1006.3 hPa WNW 20.1 km/h 35.2 km/h 43% 0.0 mm SCT
11:10 17.7 °C 4.6 °C 1006.3 hPa WNW 22.5 km/h 49.9 km/h 42% 0.0 mm SCT
11:15 17.7 °C 4.6 °C 1006.3 hPa WNW 21.7 km/h 40.7 km/h 42% 0.0 mm SCT
11:20 17.7 °C 4.9 °C 1006.7 hPa NW 23.7 km/h 38.9 km/h 43% 0.0 mm SCT
11:25 17.8 °C 4.7 °C 1006.7 hPa WNW 23.7 km/h 35.2 km/h 42% 0.0 mm SCT
11:30 17.9 °C 5.1 °C 1006.7 hPa WNW 24.1 km/h 35.4 km/h 43% 0.0 mm SCT
11:35 17.9 °C 4.8 °C 1006.6 hPa WNW 23.3 km/h 37.0 km/h 42% 0.0 mm SCT
11:40 17.9 °C 4.4 °C 1006.6 hPa WNW 20.9 km/h 46.7 km/h 41% 0.0 mm SCT
11:45 17.9 °C 4.4 °C 1006.6 hPa WNW 20.9 km/h 29.6 km/h 41% 0.0 mm SCT
11:50 17.9 °C 4.1 °C 1006.5 hPa WNW 25.7 km/h 45.1 km/h 40% 0.0 mm SCT
11:55 18.0 °C 4.2 °C 1006.5 hPa West 26.2 km/h 38.9 km/h 40% 0.0 mm SCT
12:00 18.1 °C 4.6 °C 1006.5 hPa WNW 25.7 km/h 40.2 km/h 41% 0.0 mm SCT
12:05 18.1 °C 4.6 °C 1006.5 hPa WNW 25.1 km/h 28.6 km/h 41% 0.0 mm SCT
12:10 18.1 °C 4.6 °C 1006.5 hPa WNW 22.5 km/h 48.3 km/h 41% 0.0 mm SCT
12:15 18.1 °C 4.6 °C 1006.5 hPa WNW 22.5 km/h 46.7 km/h 41% 0.0 mm SCT
12:20 18.2 °C 4.7 °C 1006.6 hPa West 29.1 km/h 40.7 km/h 41% 0.0 mm SCT
12:25 18.3 °C 4.8 °C 1006.6 hPa WNW 29.1 km/h 33.3 km/h 41% 0.0 mm SCT
12:30 18.2 °C 4.7 °C 1006.6 hPa West 23.7 km/h 35.2 km/h 41% 0.0 mm SCT
12:35 18.2 °C 4.7 °C 1006.5 hPa NW 23.7 km/h 29.6 km/h 41% 0.0 mm SCT
12:40 18.3 °C 4.8 °C 1006.5 hPa WNW 24.5 km/h 48.1 km/h 41% 0.0 mm SCT
12:45 18.3 °C 4.8 °C 1006.5 hPa NNW 24.5 km/h 26.2 km/h 41% 0.0 mm SCT
12:50 18.3 °C 4.4 °C 1006.5 hPa North 23.7 km/h 38.9 km/h 40% 0.0 mm SCT
12:55 18.3 °C 4.4 °C 1006.5 hPa NNW 23.7 km/h 27.0 km/h 40% 0.0 mm SCT
13:00 18.3 °C 4.8 °C 1006.5 hPa WNW 22.5 km/h 37.0 km/h 41% 0.0 mm SCT
13:05 18.3 °C 4.8 °C 1006.4 hPa NW 22.5 km/h 29.6 km/h 41% 0.0 mm SCT
13:10 18.4 °C 4.6 °C 1006.4 hPa WNW 20.9 km/h 40.2 km/h 40% 0.0 mm SCT
13:15 18.4 °C 4.2 °C 1006.4 hPa WNW 20.9 km/h 41.8 km/h 39% 0.0 mm SCT
13:20 18.5 °C 4.3 °C 1006.2 hPa WNW 23.3 km/h 24.1 km/h 39% 0.0 mm SCT
13:25 18.6 °C 4.4 °C 1006.2 hPa NNW 23.3 km/h 24.1 km/h 39% 0.0 mm SCT
13:30 18.6 °C 4.0 °C 1006.2 hPa NW 19.8 km/h 29.6 km/h 38% 0.0 mm SCT
13:35 18.6 °C 4.0 °C 1006.2 hPa NW 19.8 km/h 29.6 km/h 38% 0.0 mm SCT
13:40 18.6 °C 4.4 °C 1006.2 hPa NW 20.9 km/h 27.8 km/h 39% 0.0 mm SCT
13:45 18.7 °C 4.4 °C 1006.2 hPa WNW 20.9 km/h 31.5 km/h 39% 0.0 mm SCT
13:50 18.7 °C 4.4 °C 1006.1 hPa NW 19.3 km/h 32.2 km/h 39% 0.0 mm SCT
13:55 18.6 °C 4.4 °C 1006.1 hPa WNW 18.0 km/h 40.7 km/h 39% 0.0 mm SCT
14:00 18.6 °C 4.0 °C 1006.1 hPa WNW 22.5 km/h 41.8 km/h 38% 0.0 mm SCT
14:05 18.6 °C 4.4 °C 1006.1 hPa NW 22.0 km/h 33.3 km/h 39% 0.0 mm SCT
14:10 18.6 °C 4.4 °C 1006.1 hPa WSW 22.0 km/h 42.6 km/h 39% 0.0 mm SCT
14:15 18.7 °C 4.4 °C 1006.1 hPa NW 22.0 km/h 27.8 km/h 39% 0.0 mm SCT
14:20 18.7 °C 4.4 °C 1006.0 hPa WNW 20.9 km/h 37.0 km/h 39% 0.0 mm SCT
14:25 18.7 °C 4.4 °C 1006.0 hPa WNW 19.8 km/h 29.6 km/h 39% 0.0 mm SCT
14:30 18.7 °C 4.4 °C 1006.0 hPa West 19.0 km/h 42.6 km/h 39% 0.0 mm SCT
14:35 18.7 °C 4.4 °C 1006.1 hPa WNW 19.3 km/h 41.8 km/h 39% 0.0 mm SCT
14:40 18.7 °C 4.4 °C 1006.1 hPa NNW 21.7 km/h 29.6 km/h 39% 0.0 mm SCT
14:45 18.7 °C 4.4 °C 1006.1 hPa WNW 21.7 km/h 40.7 km/h 39% 0.0 mm SCT
14:50 18.6 °C 4.4 °C 1006.1 hPa WNW 22.5 km/h 38.9 km/h 39% 0.0 mm SCT
14:55 18.6 °C 4.4 °C 1006.1 hPa NW 22.5 km/h 48.1 km/h 39% 0.0 mm SCT
15:00 18.6 °C 4.7 °C 1006.1 hPa NW 27.4 km/h 49.9 km/h 40% 0.0 mm SCT
15:05 18.6 °C 5.1 °C 1006.1 hPa WNW 27.4 km/h 34.6 km/h 41% 0.0 mm SCT
15:10 18.6 °C 5.1 °C 1006.1 hPa WNW 22.5 km/h 46.3 km/h 41% 0.0 mm SCT
15:15 18.6 °C 4.7 °C 1006.1 hPa WNW 22.5 km/h 48.1 km/h 40% 0.0 mm SCT
15:20 18.7 °C 5.1 °C 1006.0 hPa WNW 29.0 km/h 56.3 km/h 41% 0.0 mm SCT
15:25 18.8 °C 4.9 °C 1006.0 hPa WNW 28.6 km/h 50.0 km/h 40% 0.0 mm SCT
15:30 18.8 °C 4.9 °C 1006.0 hPa WNW 27.4 km/h 59.5 km/h 40% 0.0 mm SCT
15:35 18.9 °C 5.0 °C 1006.1 hPa NW 28.2 km/h 42.6 km/h 40% 0.0 mm SCT
15:40 18.9 °C 5.0 °C 1006.1 hPa WSW 32.3 km/h 48.1 km/h 40% 0.0 mm SCT
15:45 18.8 °C 4.9 °C 1006.1 hPa NW 32.3 km/h 44.4 km/h 40% 0.0 mm SCT
15:50 18.9 °C 5.0 °C 1006.3 hPa WNW 29.1 km/h 38.9 km/h 40% 0.0 mm SCT
15:55 18.9 °C 5.0 °C 1006.3 hPa WNW 29.0 km/h 53.1 km/h 40% 0.0 mm SCT
16:00 18.9 °C 5.0 °C 1006.3 hPa WNW 27.4 km/h 46.7 km/h 40% 0.0 mm SCT
16:05 18.8 °C 4.9 °C 1006.4 hPa North 28.2 km/h 48.1 km/h 40% 0.0 mm SCT
16:10 18.8 °C 4.9 °C 1006.4 hPa WNW 29.0 km/h 51.5 km/h 40% 0.0 mm SCT
16:15 18.9 °C 5.0 °C 1006.4 hPa WNW 30.6 km/h 43.1 km/h 40% 0.0 mm SCT
16:20 18.9 °C 5.0 °C 1006.5 hPa NW 27.4 km/h 51.5 km/h 40% 0.0 mm FEW
16:25 18.7 °C 5.2 °C 1006.5 hPa WNW 28.2 km/h 46.3 km/h 41% 0.0 mm FEW
16:30 18.8 °C 5.3 °C 1006.5 hPa NW 29.0 km/h 53.1 km/h 41% 0.0 mm FEW
16:35 18.8 °C 5.3 °C 1006.7 hPa WNW 28.6 km/h 48.1 km/h 41% 0.0 mm FEW
16:40 18.7 °C 5.2 °C 1006.7 hPa WNW 29.1 km/h 44.4 km/h 41% 0.0 mm FEW
16:45 18.7 °C 5.5 °C 1006.7 hPa NW 29.1 km/h 29.6 km/h 42% 0.0 mm FEW
16:50 18.6 °C 5.4 °C 1006.7 hPa West 21.7 km/h 37.0 km/h 42% 0.0 mm FEW
16:55 18.6 °C 5.4 °C 1006.7 hPa NNW 21.7 km/h 40.7 km/h 42% 0.0 mm FEW
17:00 18.6 °C 5.4 °C 1006.7 hPa NW 22.5 km/h 40.2 km/h 42% 0.0 mm FEW
17:05 18.6 °C 6.1 °C 1006.8 hPa NNW 22.0 km/h 29.6 km/h 44% 0.0 mm FEW
17:10 17.6 °C 6.7 °C 1006.8 hPa NNW 20.9 km/h 24.1 km/h 49% 0.0 mm FEW
17:15 16.8 °C 6.8 °C 1006.8 hPa North 20.9 km/h 16.1 km/h 52% 0.0 mm FEW
17:20 16.3 °C 6.9 °C 1007.2 hPa NE 8.4 km/h 9.5 km/h 54% 0.0 mm SCT
17:25 16.1 °C 6.8 °C 1007.2 hPa ENE 8.4 km/h 11.1 km/h 54% 0.0 mm SCT
17:30 15.9 °C 6.9 °C 1007.2 hPa NNE 8.4 km/h 11.9 km/h 55% 0.0 mm SCT
17:35 15.9 °C 6.9 °C 1007.5 hPa ENE 8.4 km/h 7.4 km/h 55% 0.0 mm SCT
17:40 15.7 °C 6.9 °C 1007.5 hPa NE 7.6 km/h 14.8 km/h 56% 0.0 mm SCT
17:45 15.7 °C 7.2 °C 1007.5 hPa NNE 7.6 km/h 7.4 km/h 57% 0.0 mm SCT
17:50 15.6 °C 7.4 °C 1007.7 hPa NNE 8.0 km/h 14.5 km/h 58% 0.0 mm SCT
17:55 15.4 °C 7.4 °C 1007.7 hPa NNW 7.6 km/h 9.3 km/h 59% 0.0 mm SCT
18:00 15.2 °C 7.5 °C 1007.7 hPa NNE 8.0 km/h 19.3 km/h 60% 0.0 mm SCT
18:05 15.1 °C 7.6 °C 1007.8 hPa NNE 8.0 km/h 19.3 km/h 61% 0.0 mm SCT
18:10 14.9 °C 7.7 °C 1007.8 hPa NNE 9.7 km/h 16.1 km/h 62% 0.0 mm SCT
18:15 14.6 °C 7.9 °C 1007.8 hPa NE 9.5 km/h 22.2 km/h 64% 0.0 mm SCT
18:20 14.4 °C 7.9 °C 1008.2 hPa WNW 14.0 km/h 14.8 km/h 65% 0.0 mm SCT
18:25 14.4 °C 7.7 °C 1008.2 hPa NE 14.0 km/h 14.8 km/h 64% 0.0 mm SCT
18:30 14.3 °C 7.6 °C 1008.2 hPa North 10.3 km/h 18.5 km/h 64% 0.0 mm SCT
18:35 14.3 °C 7.6 °C 1008.4 hPa NE 10.3 km/h 18.5 km/h 64% 0.0 mm SCT
18:40 14.2 °C 7.5 °C 1008.4 hPa ENE 12.2 km/h 20.4 km/h 64% 0.0 mm SCT
18:45 14.2 °C 7.5 °C 1008.4 hPa NE 12.2 km/h 20.4 km/h 64% 0.0 mm SCT
18:50 14.1 °C 7.4 °C 1008.6 hPa NE 12.9 km/h 19.3 km/h 64% 0.0 mm SCT
18:55 14.1 °C 7.4 °C 1008.6 hPa NNE 13.7 km/h 11.1 km/h 64% 0.0 mm SCT
19:00 14.1 °C 7.4 °C 1008.6 hPa NE 11.3 km/h 19.3 km/h 64% 0.0 mm SCT
19:05 13.9 °C 7.4 °C 1008.8 hPa NNE 10.3 km/h 13.0 km/h 65% 0.0 mm SCT
19:09 13.9 °C 7.2 °C 1008.8 hPa North 8.4 km/h 11.1 km/h 64% 0.0 mm SCT
19:15 13.9 °C 7.4 °C 1008.8 hPa NE 8.4 km/h 13.0 km/h 65% 0.0 mm SCT
19:20 13.9 °C 6.9 °C 1009.2 hPa NE 7.6 km/h 14.8 km/h 63% 0.0 mm SCT
19:25 14.0 °C 7.1 °C 1009.2 hPa NE 7.6 km/h 11.1 km/h 63% 0.0 mm SCT
19:30 14.1 °C 6.7 °C 1009.2 hPa ENE 5.8 km/h 7.6 km/h 61% 0.0 mm SCT
19:35 14.2 °C 6.8 °C 1009.4 hPa ENE 5.8 km/h 5.8 km/h 61% 0.0 mm SCT
19:40 14.2 °C 6.6 °C 1009.4 hPa NE 4.7 km/h 7.4 km/h 60% 0.0 mm SCT
19:45 14.3 °C 6.4 °C 1009.4 hPa NNE 4.7 km/h 7.4 km/h 59% 0.0 mm SCT
19:50 14.3 °C 6.4 °C 1009.6 hPa NE 3.2 km/h 9.7 km/h 59% 0.0 mm SCT
19:55 14.3 °C 6.6 °C 1009.6 hPa NNE 4.7 km/h 5.6 km/h 60% 0.0 mm SCT
20:00 14.3 °C 6.6 °C 1009.6 hPa NNE 4.8 km/h 8.0 km/h 60% 0.0 mm SCT
20:05 14.3 °C 6.6 °C 1009.7 hPa NE 5.0 km/h 5.6 km/h 60% 0.0 mm SCT
20:10 14.2 °C 6.3 °C 1009.7 hPa NE 2.9 km/h   59% 0.0 mm SCT
20:15 14.3 °C 6.6 °C 1009.7 hPa NNW 2.9 km/h 7.4 km/h 60% 0.0 mm SCT
20:20 14.3 °C 6.9 °C 1010.0 hPa NNW 2.3 km/h 5.6 km/h 61% 0.0 mm FEW
20:25 14.2 °C 6.6 °C 1010.0 hPa NNE 2.3 km/h 4.7 km/h 60% 0.0 mm FEW
20:30 14.2 °C 6.6 °C 1010.0 hPa NNE 3.2 km/h 5.6 km/h 60% 0.0 mm FEW
20:35 14.3 °C 6.6 °C 1010.1 hPa West 3.2 km/h 11.1 km/h 60% 0.0 mm FEW
20:40 14.2 °C 6.6 °C 1010.1 hPa SW 4.8 km/h 11.3 km/h 60% 0.0 mm FEW
20:45 14.2 °C 6.3 °C 1010.1 hPa East 5.0 km/h 16.7 km/h 59% 0.0 mm FEW
20:50 14.4 °C 6.2 °C 1010.3 hPa ESE 8.4 km/h 9.3 km/h 58% 0.0 mm FEW
20:55 14.4 °C 6.2 °C 1010.3 hPa East 8.4 km/h 7.4 km/h 58% 0.0 mm FEW
21:00 14.4 °C 6.2 °C 1010.3 hPa ESE 8.0 km/h 12.9 km/h 58% 0.0 mm FEW
21:05 14.3 °C 6.2 °C 1010.3 hPa ESE 6.4 km/h 9.3 km/h 58% 0.0 mm FEW
21:10 14.2 °C 6.1 °C 1010.3 hPa SE 8.4 km/h 13.0 km/h 58% 0.0 mm FEW
21:15 14.2 °C 6.1 °C 1010.3 hPa SSE 8.4 km/h 13.0 km/h 58% 0.0 mm FEW
21:20 14.3 °C 5.9 °C 1010.3 hPa South 8.4 km/h 13.0 km/h 57% 0.0 mm FEW
21:25 14.3 °C 5.9 °C 1010.3 hPa West 8.4 km/h 9.3 km/h 57% 0.0 mm FEW
21:30 14.3 °C 5.9 °C 1010.3 hPa SSW 6.9 km/h 14.8 km/h 57% 0.0 mm FEW
21:35 14.7 °C 6.0 °C 1010.3 hPa West 6.9 km/h 7.4 km/h 56% 0.0 mm FEW
21:40 14.7 °C 5.7 °C 1010.3 hPa West 6.9 km/h 7.6 km/h 55% 0.0 mm FEW
21:45 14.8 °C 5.6 °C 1010.3 hPa SSW 6.9 km/h 7.4 km/h 54% 0.0 mm FEW
21:50 14.9 °C 5.7 °C 1010.4 hPa SW 4.8 km/h 8.0 km/h 54% 0.0 mm FEW
21:55 14.9 °C 5.7 °C 1010.4 hPa WNW 5.0 km/h 7.4 km/h 54% 0.0 mm FEW
22:00 14.8 °C 5.6 °C 1010.4 hPa WSW 3.2 km/h 9.7 km/h 54% 0.0 mm FEW
22:05 14.9 °C 5.7 °C 1010.6 hPa SW 2.9 km/h 11.1 km/h 54% 0.0 mm FEW
22:10 15.1 °C 5.6 °C 1010.6 hPa SW 8.0 km/h 9.7 km/h 53% 0.0 mm FEW
22:15 15.1 °C 5.6 °C 1010.6 hPa SW 6.4 km/h 13.0 km/h 53% 0.0 mm FEW
22:20 15.4 °C 5.6 °C 1010.7 hPa WSW 7.6 km/h 14.8 km/h 52% 0.0 mm CLR
22:25 15.6 °C 5.5 °C 1010.7 hPa SW 7.6 km/h 9.3 km/h 51% 0.0 mm CLR
22:30 15.7 °C 5.6 °C 1010.7 hPa SW 8.4 km/h 10.0 km/h 51% 0.0 mm CLR
22:35 15.8 °C 5.7 °C 1010.9 hPa WSW 8.4 km/h 11.1 km/h 51% 0.0 mm CLR
22:40 15.8 °C 5.7 °C 1010.9 hPa SW 8.4 km/h 9.3 km/h 51% 0.0 mm CLR
22:45 15.7 °C 5.6 °C 1010.9 hPa SW 8.4 km/h 11.1 km/h 51% 0.0 mm CLR
22:50 15.7 °C 5.6 °C 1011.1 hPa SW 8.0 km/h 12.9 km/h 51% 0.0 mm CLR
22:55 15.7 °C 5.6 °C 1011.1 hPa SW 7.6 km/h 14.8 km/h 51% 0.0 mm CLR
23:00 15.7 °C 5.6 °C 1011.1 hPa WSW 9.7 km/h 14.5 km/h 51% 0.0 mm CLR
23:05 15.7 °C 5.6 °C 1011.1 hPa SW 10.0 km/h 13.0 km/h 51% 0.0 mm CLR
23:10 15.7 °C 5.6 °C 1011.1 hPa SW 10.0 km/h 11.1 km/h 51% 0.0 mm CLR
23:15 15.7 °C 5.3 °C 1011.1 hPa West 10.0 km/h 14.8 km/h 50% 0.0 mm CLR
23:20 15.7 °C 5.3 °C 1011.1 hPa WSW 9.7 km/h 16.1 km/h 50% 0.0 mm CLR
23:25 15.6 °C 5.2 °C 1011.1 hPa WSW 10.0 km/h 13.0 km/h 50% 0.0 mm CLR
23:30 15.6 °C 5.2 °C 1011.1 hPa WSW 9.7 km/h 17.7 km/h 50% 0.0 mm CLR
23:35 15.6 °C 5.2 °C 1011.2 hPa WSW 8.7 km/h 14.8 km/h 50% 0.0 mm CLR
23:40 15.7 °C 5.0 °C 1011.2 hPa WSW 9.7 km/h 16.1 km/h 49% 0.0 mm CLR
23:45 15.7 °C 5.0 °C 1011.2 hPa WSW 8.7 km/h 11.1 km/h 49% 0.0 mm CLR
23:50 15.7 °C 5.0 °C 1011.3 hPa NW 8.7 km/h 9.3 km/h 49% 0.0 mm CLR
23:55 15.8 °C 5.1 °C 1011.3 hPa West 8.7 km/h 9.3 km/h 49% 0.0 mm CLR
Murcia-Puente Tocinos, España
Compliments of Weather Underground - 2.75 mb

La estación de MeteoMurcia.com, publica sus datos en los siguientes proyectos:

Weather Underground PWS IMURCIAP2 Meteoclimatic www.awekas.at

W3Counter
Web Analytics